Overview Statistics Trail Chart Weather Telemetry Raw packets
 

This is the latest recevied weather packets stored in our database for station/object SV9TNF-52. If no packets are shown the sender has not sent any weather packets the latest 10 day(s).

<< 106 107 108 109 110 111 112 >>
Time Temp. Humidity Pressure Rain* Wind** Luminosity Snow
1787875306 26.67° C 72% 1020.7 hPa 0 mm 0.89 m/s, 90° - -
1787875006 26.67° C 72% 1020.7 hPa 0 mm 0.89 m/s, 148° - -
1787874706 26.67° C 72% 1020.7 hPa 0 mm 4.92 m/s, 163° - -
1787874406 26.11° C 72% 1020.7 hPa 0 mm 3.13 m/s, 117° - -
1787874106 26.11° C 72% 1020.7 hPa 0 mm 5.81 m/s, 151° - -
1787873806 25° C 72% 1020.7 hPa 0 mm 5.81 m/s, 185° - -
1787873506 24.44° C 72% 1020.7 hPa 0 mm 5.81 m/s, 162° - -
1787873206 24.44° C 72% 1020.7 hPa 0 mm 5.36 m/s, 181° - -
1787872906 24.44° C 72% 1020.7 hPa 0 mm 4.92 m/s, 205° - -
1787872605 24.44° C 71% 1020.7 hPa 0 mm 2.68 m/s, 201° - -
1787872305 25.56° C 70% 1020.7 hPa 0 mm 3.58 m/s, 190° - -
1787872005 25.56° C 71% 1020.7 hPa 0 mm 1.79 m/s, 238° - -
1787871706 25.56° C 71% 1020.7 hPa 0 mm 2.68 m/s, 120° - -
1787871406 25° C 71% 1021 hPa 0 mm 2.24 m/s, 254° - -
1787871105 25° C 71% 1021 hPa 0 mm 2.24 m/s, 226° - -
1787870805 25° C 71% 1020.7 hPa 0 mm 2.68 m/s, 221° - -
1787870505 25° C 71% 1020.7 hPa 0 mm 5.36 m/s, 204° - -
1787870205 25° C 71% 1020.7 hPa 0 mm 3.58 m/s, 256° - -
1787869905 25° C 71% 1021 hPa 0 mm 6.26 m/s, 172° - -
1787869604 25° C 71% 1021 hPa 0 mm 7.15 m/s, 190° - -
1787869304 25° C 71% 1020.7 hPa 0 mm 9.83 m/s, 183° - -
1787869004 25° C 71% 1020.7 hPa 0 mm 5.36 m/s, 160° - -
1787868704 24.44° C 71% 1021 hPa 0 mm 5.81 m/s, 194° - -
1787868405 24.44° C 71% 1021 hPa 0 mm 4.92 m/s, 266° - -
1787868104 24.44° C 70% 1021 hPa 0 mm 4.92 m/s, 212° - -

* Rain latest hour (hover to see other rain measurements)
** Current wind speed in m/s (hover to see current wind gust speed)